Bonaire, Netherlands

3:11 PM AST on June 26, 2017 (GMT -0400)
Flamingo

Weather History for TNCB - November, 2010

Change the Weather History Date:

Tuesday, November 2, 2010

  Actual Average Record
Temperature  
Mean Temperature 76 °F -  
Max Temperature 80 °F 86 °F 91 °F (1998)
Min Temperature 73 °F 79 °F 73 °F (2010)
Cooling Degree Days 12    
Growing Degree Days 26 (Base 50)    
Moisture  
Dew Point 75 °F    
Average Humidity 93    
Maximum Humidity 100    
Minimum Humidity 79    
Precipitation  
Precipitation 1.65 in - - ()
Sea Level Pressure  
Sea Level Pressure 29.82 in    
Wind  
Wind Speed 8 mph ()    
Max Wind Speed 18 mph    
Max Gust Speed -    
Visibility 7.1 miles    
Events Rain    
Averages and records for this station are not official NWS values.
T = Trace of Precipitation, MM = Missing Value Source: Averaged Metar Reports

Daily Weather History Graph

Daily Weather History Graph

Search for Another Location

Airport or City:

Trip Planner

Search our weather history database for the weather conditions in past years. The results will help you decide how hot, cold, wet, or windy it might be!

Date:

Astronomy

Nov. 02, 2010 Rise Set
Actual Time 6:26 AM AST 6:07 PM AST
Civil Twilight 6:04 AM AST 6:28 PM AST
Nautical Twilight 5:39 AM AST 6:54 PM AST
Astronomical Twilight 5:13 AM AST 7:19 PM AST
Moon 2:48 AM AST (11/2) 3:11 PM AST (11/2)
Length of Visible Light 12h 24m
Length of Day
11h 40m
Waning Crescent, 17% of the Moon is Illuminated
Nov 2
Waning Crescent
Nov 6
New
Nov 13
First Quarter
Nov 21
Full
Nov 28
Last Quarter

Hourly Weather History & Observations

Time (AST) Temp. Heat Index Dew Point Humidity Pressure Visibility Wind Dir Wind Speed Gust Speed Precip Events Conditions
12:00 AM 82.4 °F 90.9 °F 77.0 °F 84% 29.86 in - East 13.8 mph - N/A   Unknown
1:00 AM 84.2 °F 94.1 °F 77.0 °F 79% 29.83 in - East 11.5 mph - N/A   Unknown
2:00 AM 75 °F - 74 °F 98%  in - WSW 18.4 mph - -   Clear
2:00 AM 75.2 °F - 75.2 °F 100% 29.83 in - WSW 18.4 mph - N/A Rain Heavy Rain
3:00 AM 73.4 °F - 73.4 °F 100% 29.80 in - East 10.4 mph - N/A Rain Heavy Rain
4:00 AM 73.4 °F - 73.4 °F 100% 29.80 in - ESE 6.9 mph - N/A Rain Light Rain
5:00 AM 73 °F - 73 °F 99%  in - SSE 9.2 mph - -   Clear
5:00 AM 73.4 °F - 73.4 °F 100% 29.80 in - ESE 8.1 mph - N/A Rain Rain
6:00 AM 73.4 °F - 73.4 °F 100% 29.83 in - ESE 5.8 mph - N/A Rain Light Rain
7:00 AM 73.4 °F - 73.4 °F 100% 29.86 in - ESE 5.8 mph - N/A Rain Light Rain
8:00 AM 73.4 °F - 73.4 °F 100% 29.86 in 5.0 mi ESE 5.8 mph - N/A Rain Light Rain
9:00 AM 75.2 °F - 75.2 °F 100% 29.92 in 5.0 mi ESE 5.8 mph - N/A Rain Rain
10:00 AM 75.2 °F - 75.2 °F 100% 29.92 in 6.2 mi East 2.3 mph - N/A Rain Rain
11:00 AM 78 °F - 73 °F 80% 29.91 in 9 mi SSE 8.1 mph - - Rain Light Rain Showers
11:00 AM 77.0 °F - 77.0 °F 100% 29.89 in 6.2 mi East 2.3 mph - N/A Rain Rain
12:00 PM 77.0 °F - 77.0 °F 100% 29.86 in 6.2 mi East 2.3 mph - N/A Rain Rain
1:00 PM 78.8 °F - 77.0 °F 94% 29.83 in 6.2 mi East 2.3 mph - N/A   Scattered Clouds
2:00 PM 80 °F - 76 °F 84% 29.80 in 12 mi East 2.3 mph - - Rain Light Rain Showers
2:00 PM 80.6 °F 87.1 °F 77.0 °F 89% 29.77 in - East 2.3 mph - N/A   Unknown
3:00 PM 80.6 °F 86.2 °F 75.2 °F 84% 29.77 in 6.2 mi East 2.3 mph - N/A   Scattered Clouds
4:00 PM 78.8 °F - 75.2 °F 89% 29.77 in 6.2 mi East 10.4 mph - N/A   Scattered Clouds
5:00 PM 80 °F - 76 °F 84% 29.77 in 12 mi East 6.9 mph - - Rain Light Rain
5:00 PM 80.6 °F 87.1 °F 77.0 °F 89% 29.74 in 6.2 mi East 6.9 mph - N/A Rain Light Rain
6:00 PM 78.8 °F - 75.2 °F 89% 29.77 in 6.2 mi East 6.9 mph - N/A   Scattered Clouds
7:00 PM 78.8 °F - 75.2 °F 89% 29.77 in - ENE 4.6 mph - N/A   Unknown
8:00 PM 78 °F - 75 °F 86% 29.79 in 9 mi East 4.6 mph - -   Partly Cloudy
8:00 PM 78.8 °F - 75.2 °F 89% 29.80 in 6.2 mi ENE 4.6 mph - N/A   Partly Cloudy
9:00 PM 78.8 °F - 75.2 °F 89% 29.83 in 6.2 mi ENE 4.6 mph - N/A   Partly Cloudy
10:00 PM 77.0 °F - 75.2 °F 94% 29.83 in - ENE 1.2 mph - N/A   Unknown
11:00 PM 78.8 °F - 75.2 °F 89% 29.86 in - East 3.5 mph - N/A   Unknown